Location: Marcé
(47.5801°N, 0.3280°W)
Time: 01:56:04
(UTC+02:00)

RAPIDEYE 2 - Pass Details

Date: 09 July 2022
Orbit: 570 x 584 km, 97.6° (Epoch: 14 August)

Event Time Altitude Azimuth Distance (km) Brightness Sun altitude
Exits shadow 23:21:45 - 188° (S) 2,200 ? -10.9°
Reaches altitude 10° 23:22:36 10° 192° (SSW) 1,868 ? -11.0°
Maximum altitude 23:26:25 40° 262° (W) 852 ? -11.4°
Drops below altitude 10° 23:30:17 10° 333° (NNW) 1,887 ? -11.8°
Sets 23:32:33 0° 341° (NNW) 2,792 ? -12.0°
